Weather reports worldwide

Advertisment
Hoogeveen aws, Netherlands (6279): temperature & dewpoint: 22.01.2020 07:00:00 - 28.01.2020 07:00:00 (CET)Hoogeveen aws, Netherlands (6279): temperature 5cm: 22.01.2020 07:00:00 - 28.01.2020 07:00:00 (CET)Hoogeveen aws, Netherlands (6279): wind speed & gusts: 22.01.2020 07:00:00 - 28.01.2020 07:00:00 (CET)Hoogeveen aws, Netherlands (6279): wind direction: 22.01.2020 07:00:00 - 28.01.2020 07:00:00 (CET)Hoogeveen aws, Netherlands (6279): reduced air pressure: 22.01.2020 07:00:00 - 28.01.2020 07:00:00 (CET)Hoogeveen aws, Netherlands (6279): visibility: 22.01.2020 07:00:00 - 28.01.2020 07:00:00 (CET)Hoogeveen aws, Netherlands (6279): precipitation: 22.01.2020 07:00:00 - 28.01.2020 07:00:00 (CET)
Date & Time tt [°C] td [°C] tt 5cm [°C] ff [km/h] ff [kn] fx [km/h] fx [kn] dd ppp [hPa] vv [km] rr [mm]
28.01.2020 07:00:00 5,3 4,4 5,0 18 10 36 19 SSW 988,7 25 0,1
28.01.2020 06:00:00 6,0 4,1 5,5 25 14 36 19 SSW 989,4 53 0,0
28.01.2020 05:00:00 6,1 4,9 5,7 22 12 36 19 SSW 989,8 38 0,0
28.01.2020 04:00:00 6,2 5,0 5,9 22 12 32 18 SW 990,3 40 0,0
28.01.2020 03:00:00 6,1 4,9 5,7 22 12 50 27 SW 990,6 52 0,2
28.01.2020 02:00:00 7,3 6,4 7,0 29 16 47 25 SSW 990,1 37 0,1
28.01.2020 01:00:00 6,7 6,1 6,3 25 14 40 21 S 991,0 9 1,4
28.01.2020 00:00:00 6,7 6,1 6,4 18 10 32 18 SSE 992,9 7 1,9
27.01.2020 23:00:00 6,8 5,7 6,4 18 10 29 16 SSE 994,8 23 0,0
27.01.2020 22:00:00 6,9 6,1 6,5 18 10 29 16 S 996,6 18 0,0
27.01.2020 21:00:00 7,0 6,4 6,3 18 10 25 14 S 997,9 14 0,0
27.01.2020 20:00:00 6,8 6,4 6,2 14 8 22 12 S 999,1 11 0,0
27.01.2020 19:00:00 7,6 6,9 7,2 14 8 22 12 S 1000,4 18 0,0
27.01.2020 18:00:00 7,6 6,8 7,1 14 8 22 12 S 1001,2 21 0,0
27.01.2020 17:00:00 7,9 6,9 7,3 14 8 25 14 SSW 1002,0 29 0,0
27.01.2020 16:00:00 8,6 7,2 8,2 14 8 22 12 SSW 1002,5 42 0,0
27.01.2020 15:00:00 8,7 7,3 8,5 14 8 25 14 S 1002,7 33 0,0
27.01.2020 14:00:00 8,8 7,6 8,7 18 10 29 16 SSW 1003,8 29 0,0
27.01.2020 13:00:00 8,7 7,7 8,6 18 10 25 14 SSW 1004,6 23 0,0
27.01.2020 12:00:00 8,5 7,9 8,5 18 10 32 18 SSW 1005,1 14 0,1
27.01.2020 11:00:00 8,3 7,9 8,2 18 10 29 16 SSW 1005,9 13 0,1
27.01.2020 10:00:00 7,8 7,6 7,7 18 10 36 19 SSW 1005,9 14 0,1
27.01.2020 09:00:00 7,6 7,4 7,3 14 8 25 14 S 1006,2 13 0,5
27.01.2020 08:00:00 7,5 7,3 7,2 14 8 29 16 SSW 1006,3 12 0,1
27.01.2020 07:00:00 7,2 7,0 6,9 18 10 32 18 SSW 1006,5 11 0,2
27.01.2020 06:00:00 6,9 6,6 6,7 22 12 36 19 SSW 1006,8 8 0,3
27.01.2020 05:00:00 6,7 6,3 6,5 22 12 40 21 SSW 1007,2 6 1,1
27.01.2020 04:00:00 6,8 6,1 6,5 25 14 40 21 S 1007,7 16 0,5
27.01.2020 03:00:00 6,6 5,8 6,2 22 12 29 16 S 1008,2 8 0,2
27.01.2020 02:00:00 6,6 5,8 6,2 22 12 32 18 S 1008,9 11 0,6
27.01.2020 01:00:00 6,9 5,7 6,5 22 12 32 18 S 1009,7 11 0,0
27.01.2020 00:00:00 6,9 5,4 6,4 18 10 29 16 S 1010,4 14 0,0
26.01.2020 23:00:00 6,7 5,3 6,2 18 10 25 14 S 1010,7 14 0,0
26.01.2020 22:00:00 6,4 4,9 5,6 14 8 25 14 S 1011,5 13 0,0
26.01.2020 21:00:00 6,6 4,9 6,0 18 10 29 16 S 1012,0 12 0,0
26.01.2020 20:00:00 5,8 4,6 4,7 18 10 25 14 S 1012,2 10 0,0
26.01.2020 19:00:00 5,3 4,4 4,4 14 8 22 12 S 1012,5 9 0,0
26.01.2020 18:00:00 5,4 4,7 4,0 11 6 18 10 S 1013,0 8 0,0
26.01.2020 17:00:00 5,0 4,2 4,1 11 6 18 10 S 1013,3 8 0,0
26.01.2020 16:00:00 6,5 4,8 6,3 14 8 18 10 S 1013,2 12 0,0
26.01.2020 15:00:00 6,2 4,8 6,3 11 6 18 10 S 1013,7 13 0,0
26.01.2020 14:00:00 5,8 4,2 6,1 11 6 22 12 S 1014,2 14 0,0
26.01.2020 13:00:00 5,3 4,3 5,7 14 8 22 12 S 1014,7 11 0,0
26.01.2020 12:00:00 4,0 4,0 4,1 14 8 22 12 S 1015,5 6 0,0
26.01.2020 11:00:00 2,9 2,9 2,8 11 6 22 12 S 1016,0 3,8 0,0
26.01.2020 10:00:00 1,9 1,9 2,0 14 8 22 12 SSE 1016,3 1,7 0,0
26.01.2020 09:00:00 1,4 1,4 1,5 14 8 22 12 SSE 1016,5 0,5 0,0
26.01.2020 08:00:00 1,0 1,0 1,1 14 8 25 14 SSE 1016,7 0,4 0,0
26.01.2020 07:00:00 0,8 0,8 0,9 14 8 22 12 SSE 1016,9 0,3 0,0
26.01.2020 06:00:00 0,7 0,7 0,8 14 8 22 12 SSE 1017,2 0,4 0,0
26.01.2020 05:00:00 0,8 0,8 0,9 14 8 25 14 SE 1017,3 0,6 0,0
26.01.2020 04:00:00 0,9 0,8 1,0 18 10 25 14 S 1018,0 2,4 0,0
26.01.2020 03:00:00 0,3 0,3 0,0 11 6 18 10 SSE 1018,5 1,9 0,0
26.01.2020 02:00:00 0,5 0,2 0,1 11 6 14 8 S 1018,9 2,2 0,0
26.01.2020 01:00:00 0,8 0,7 0,7 7 4 11 6 S 1019,4 2,7 0,0
26.01.2020 00:00:00 1,0 0,6 1,0 7 4 14 8 S 1019,9 3,4 0,0
25.01.2020 23:00:00 1,1 0,5 1,1 11 6 18 10 S 1020,3 4,3 0,0
25.01.2020 22:00:00 1,1 0,4 1,1 7 4 22 12 SSW 1020,5 5 0,0
25.01.2020 21:00:00 1,1 0,4 1,1 11 6 22 12 S 1020,7 4,9 0,0
25.01.2020 20:00:00 1,2 0,2 1,2 11 6 22 12 S 1020,8 6 0,0
25.01.2020 19:00:00 1,4 0,3 1,4 11 6 22 12 SSW 1020,8 7 0,0
25.01.2020 18:00:00 1,7 0,6 1,8 11 6 22 12 S 1020,6 7 0,0
25.01.2020 17:00:00 2,0 0,9 2,0 11 6 18 10 S 1020,4 8 0,0
25.01.2020 16:00:00 2,2 1,1 2,3 11 6 18 10 S 1020,7 8 0,0
25.01.2020 15:00:00 2,4 1,2 2,6 14 8 18 10 S 1021,0 9 0,0
25.01.2020 14:00:00 2,5 1,5 2,6 11 6 22 12 SSW 1021,5 10 0,0
25.01.2020 13:00:00 2,2 1,2 2,5 14 8 22 12 S 1021,9 10 0,0
25.01.2020 12:00:00 2,2 1,4 2,3 14 8 25 14 SSW 1022,3 8 0,0
25.01.2020 11:00:00 2,0 1,5 2,2 18 10 25 14 SSW 1022,1 5 0,0
25.01.2020 10:00:00 1,9 1,4 2,0 14 8 22 12 SSW 1021,9 5 0,0
25.01.2020 09:00:00 1,9 1,8 2,0 11 6 18 10 SSW 1021,8 4,0 0,0
25.01.2020 08:00:00 1,9 1,8 1,9 11 6 18 10 SSW 1021,5 3,7 0,0
25.01.2020 07:00:00 1,9 1,7 1,9 11 6 22 12 SSW 1021,3 3,3 0,0
25.01.2020 06:00:00 1,8 1,7 1,9 14 8 22 12 SSW 1021,1 2,8 0,0
25.01.2020 05:00:00 1,8 1,7 1,9 14 8 25 14 SSW 1021,0 2,6 0,0
25.01.2020 04:00:00 2,0 1,7 2,1 14 8 25 14 SSW 1021,5 3,3 0,0
25.01.2020 03:00:00 2,1 1,7 2,2 18 10 25 14 SSW 1021,9 4,5 0,0
25.01.2020 02:00:00 2,1 1,6 2,1 14 8 25 14 SSW 1022,0 4,9 0,0
25.01.2020 01:00:00 2,1 1,6 2,1 14 8 25 14 SW 1022,1 5 0,0
25.01.2020 00:00:00 2,1 1,6 2,1 18 10 25 14 SSW 1022,3 6 0,0
24.01.2020 23:00:00 2,0 1,8 2,0 14 8 25 14 SSW 1022,4 6 0,0
24.01.2020 22:00:00 2,1 1,8 2,1 18 10 25 14 SSW 1022,6 6 0,0
24.01.2020 21:00:00 2,0 1,8 2,1 18 10 29 16 SSW 1022,5 6 0,0
24.01.2020 20:00:00 2,2 2,0 2,2 18 10 25 14 SSW 1022,5 6 0,0
24.01.2020 19:00:00 2,3 1,9 2,3 18 10 22 12 SSW 1022,7 5 0,0
24.01.2020 18:00:00 2,5 1,7 2,5 14 8 22 12 SSW 1022,6 8 0,0
24.01.2020 17:00:00 2,7 1,5 2,8 11 6 18 10 SW 1022,4 11 0,0
24.01.2020 16:00:00 3,1 1,7 3,2 14 8 25 14 SSW 1022,0 11 0,0
24.01.2020 15:00:00 3,4 1,9 3,7 14 8 22 12 SSW 1021,8 9 0,0
24.01.2020 14:00:00 3,2 2,1 3,6 14 8 22 12 SSW 1022,3 6 0,0
24.01.2020 13:00:00 2,7 1,7 2,9 14 8 25 14 SW 1023,6 3,9 0,0
24.01.2020 12:00:00 2,1 1,1 2,2 14 8 22 12 SSW 1023,8 4,0 0,0
24.01.2020 11:00:00 1,6 0,8 1,8 14 8 22 12 SSW 1024,0 4,8 0,0
24.01.2020 10:00:00 1,1 0,2 1,3 14 8 18 10 SSW 1024,2 5 0,0
24.01.2020 09:00:00 1,0 0,2 1,1 11 6 18 10 W 1024,3 4,0 0,0
24.01.2020 08:00:00 1,2 0,4 1,3 7 4 18 10 W 1023,7 3,7 0,0
24.01.2020 07:00:00 1,2 0,5 1,2 11 6 14 8 SW 1023,5 3,6 0,0
24.01.2020 06:00:00 1,1 0,6 1,3 11 6 14 8 W 1024,2 3,2 0,0
24.01.2020 05:00:00 1,3 0,7 1,4 11 6 18 10 W 1024,3 3,2 0,0
24.01.2020 04:00:00 1,3 0,8 1,3 11 6 18 10 SW 1024,5 3,1 0,0
24.01.2020 03:00:00 1,3 1,1 1,3 7 4 14 8 SSW 1025,4 2,9 0,0
24.01.2020 02:00:00 1,0 1,0 1,1 7 4 11 6 SW 1026,1 2,8 0,0
24.01.2020 01:00:00 0,9 0,9 1,2 4 2 11 6 NW 1026,8 1,8 0,0
24.01.2020 00:00:00 1,0 1,0 1,3 7 4 14 8 SW 1027,1 0,3 0,0
23.01.2020 23:00:00 0,9 0,9 1,1 7 4 14 8 SW 1027,5 0,2 0,0
23.01.2020 22:00:00 1,0 1,0 1,3 7 4 14 8 S 1028,2 0,3 0,0
23.01.2020 21:00:00 1,3 1,3 1,5 4 2 14 8 SSE 1028,3 0,5 0,0
23.01.2020 20:00:00 1,5 1,5 1,6 0 0 7 4 N 1028,9 1,9 0,0
23.01.2020 19:00:00 1,6 1,6 1,8 4 2 7 4 SSE 1029,1 3,1 0,0
23.01.2020 18:00:00 1,7 1,7 1,9 7 4 14 8 SW 1029,6 2,9 0,0
23.01.2020 17:00:00 2,5 2,5 2,7 4 2 14 8 S 1029,7 6 0,0
23.01.2020 16:00:00 2,6 2,6 2,8 4 2 11 6 S 1030,2 6 0,0
23.01.2020 15:00:00 2,7 2,7 3,2 7 4 14 8 SSW 1030,9 5 0,0
23.01.2020 14:00:00 2,6 2,6 3,3 7 4 11 6 SW 1031,8 6 0,0
23.01.2020 13:00:00 2,6 2,6 3,6 7 4 11 6 S 1032,6 1,2 0,0
23.01.2020 12:00:00 1,8 1,8 2,5 7 4 11 6 S 1033,2 0,2 0,0
23.01.2020 11:00:00 1,8 1,8 2,5 7 4 11 6 SE 1034,1 0,1 0,0
23.01.2020 10:00:00 1,9 1,9 2,3 4 2 7 4 SSE 1034,3 0,2 0,0
23.01.2020 09:00:00 1,8 1,8 2,1 4 2 11 6 S 1034,5 0,2 0,0
23.01.2020 08:00:00 2,0 2,0 2,2 4 2 11 6 SSE 1034,4 0,1 0,0
23.01.2020 07:00:00 2,0 2,0 2,2 4 2 7 4 SSE 1034,6 0,1 0,0
23.01.2020 06:00:00 3,1 3,1 3,2 4 2 7 4 S 1034,9 0,2 0,0
23.01.2020 05:00:00 3,3 3,3 3,4 0 0 7 4 N 1035,2 0,1 0,0
23.01.2020 04:00:00 4,1 4,1 4,2 4 2 11 6 SSW 1035,8 0,1 0,0
23.01.2020 03:00:00 4,2 4,2 4,1 7 4 7 4 SSW 1035,9 0,1 0,0
23.01.2020 02:00:00 3,1 3,1 3,0 4 2 4 2 WNW 1036,3 0,1 0,0
23.01.2020 01:00:00 2,4 2,4 2,2 0 0 4 2 N 1036,7 0,3 0,0
23.01.2020 00:00:00 3,3 3,3 2,4 0 0 7 4 N 1036,7 0,1 0,0
22.01.2020 23:00:00 4,4 4,4 3,1 4 2 7 4 NNW 1036,7 0,2 0,0
22.01.2020 22:00:00 4,8 4,8 4,4 4 2 7 4 WSW 1036,6 1,5 0,0
22.01.2020 21:00:00 4,8 4,8 4,5 4 2 7 4 NNW 1036,5 3,4 0,0
22.01.2020 20:00:00 5,3 5,3 4,8 4 2 7 4 NW 1036,5 6 0,0
22.01.2020 19:00:00 5,6 5,5 5,1 4 2 7 4 W 1036,1 19 0,0
22.01.2020 18:00:00 5,9 5,9 5,7 4 2 14 8 NW 1035,9 46 0,0
22.01.2020 17:00:00 6,5 6,2 6,4 7 4 14 8 N 1035,6 8 0,0
22.01.2020 16:00:00 7,2 6,0 7,1 11 6 22 12 NNE 1035,5 43 0,0
22.01.2020 15:00:00 7,9 6,4 7,7 11 6 18 10 NNW 1035,3 75 0,0
22.01.2020 14:00:00 8,0 7,2 8,1 11 6 14 8 W 1035,5 10 0,0
22.01.2020 13:00:00 7,4 7,3 7,5 7 4 14 8 W 1035,5 6 0,0
22.01.2020 12:00:00 6,2 6,2 6,4 11 6 14 8 W 1036,1 2,1 0,0
22.01.2020 11:00:00 5,2 5,2 5,2 11 6 18 10 W 1036,3 1,6 0,0
22.01.2020 10:00:00 4,5 4,5 4,4 11 6 18 10 W 1036,0 1,4 0,0
22.01.2020 09:00:00 4,0 4,0 3,9 11 6 18 10 WSW 1035,9 0,9 0,0
22.01.2020 08:00:00 3,8 3,8 3,8 11 6 18 10 WSW 1035,4 1,0 0,0
22.01.2020 07:00:00 3,6 3,6 3,6 14 8 22 12 WSW 1035,4 1,5 0,0

tt = temperature
td = dewpoint
tt 5cm = temperature 5cm
ff = wind speed
fx = gusts
dd = wind direction
ppp = reduced air pressure
vv = visibility
rr = precipitation

Next stations